Flight Track Log - Related Links

Times and Time Zones

All times are in EDT time to prevent confusion due to time zone crossing. See the PRY1 flight status page for this flight to view local times or setup timezone preferences in your user account.

Time Position Orientation Groundspeed Altitude Reporting Facility
EDT Latitude Longitude Course Direction KTS MPH feet Rate Location/Type
Fri 09:52:01 PM 41.8442 -91.6222 95° East 188 216 6,200  Level Chicago Center
Fri 09:53:02 PM 41.8378 -91.5567 97° East 177 204 8,400 2,000 Climbing Chicago Center
Fri 09:54:04 PM 41.8339 -91.4933 95° East 175 201 10,300 1,854 Climbing Chicago Center
Fri 09:55:00 PM 41.8462 -91.2349 109° East  Level FlightAware Approximate
Fri 09:55:05 PM 41.8294 -91.4275 95° East 175 201 12,200  Level Chicago Center
Fri 09:56:00 PM 41.8303 -91.1441 96° East  Level FlightAware Approximate
Fri 09:56:06 PM 41.8236 -91.3428 95° East 188 216 14,500  Level Chicago Center
Fri 09:57:07 PM 41.8186 -91.2722 95° East 189 217 16,300 1,805 Climbing Chicago Center
Fri 09:58:09 PM 41.8133 -91.1989 95° East 194 223 18,200 1,707 Climbing Chicago Center
Fri 09:59:10 PM 41.8086 -91.1239 95° East 200 230 19,800 1,426 Climbing Chicago Center
Fri 10:00:11 PM 41.8031 -91.0483 96° East 203 234 21,100 1,328 Climbing Chicago Center
Fri 10:01:12 PM 41.7969 -90.9683 96° East 211 243 22,500 1,317 Climbing Chicago Center
Fri 10:02:14 PM 41.7914 -90.8911 95° East 211 243 23,800 1,220 Climbing Chicago Center
Fri 10:03:15 PM 41.7847 -90.7958 95° East 212 244 25,000 639 Climbing Chicago Center
Fri 10:04:16 PM 41.7786 -90.7072 95° East 238 274 25,100 49 Climbing Chicago Center
Fri 10:05:17 PM 41.7697 -90.6042 97° East 269 310 25,100 -49 Level Chicago Center
Fri 10:06:18 PM 41.7625 -90.5022 95° East 273 314 25,000 -49 Descending Chicago Center
Fri 10:07:19 PM 41.7547 -90.3961 96° East 281 323 25,000  Level Chicago Center
Fri 10:08:21 PM 41.7464 -90.2906 96° East 282 325 25,000 49 Level Chicago Center
Fri 10:09:22 PM 41.7392 -90.1847 95° East 282 325 25,100  Climbing Chicago Center
Fri 10:10:23 PM 41.7297 -90.0806 97° East 283 326 25,000 -49 Descending Chicago Center
Fri 10:11:24 PM 41.7222 -89.9758 95° East 283 326 25,000 49 Level Chicago Center
Fri 10:12:25 PM 41.7136 -89.8700 96° East 283 326 25,100 49 Climbing Chicago Center
Fri 10:13:26 PM 41.7047 -89.7639 96° East 284 327 25,100  Level Chicago Center
Fri 10:14:28 PM 41.6956 -89.6572 97° East 287 330 25,100  Level Chicago Center
Fri 10:15:29 PM 41.6875 -89.5461 96° East 287 330 25,100  Level Chicago Center
Fri 10:16:30 PM 41.6781 -89.4389 97° East 289 333 25,100  Level Chicago Center
Fri 10:17:31 PM 41.6667 -89.3111 97° East 289 333 25,100  Level Chicago Center
Fri 10:18:32 PM 41.6583 -89.2056 96° East 288 331 25,100  Level Chicago Center
Fri 10:19:33 PM 41.6486 -89.1014 97° East 285 328 25,100  Level Chicago Center
Fri 10:20:34 PM 41.6392 -88.9978 97° East 285 328 25,100  Level Chicago Center
Fri 10:21:36 PM 41.6297 -88.8939 97° East 284 327 25,100  Level Chicago Center
Fri 10:22:37 PM 41.6203 -88.7889 97° East 284 327 25,100  Level Chicago Center
Fri 10:23:38 PM 41.6111 -88.6856 97° East 284 327 25,100  Level Chicago Center
Fri 10:24:39 PM 41.6014 -88.5817 97° East 284 327 25,100  Level Chicago Center
Fri 10:25:40 PM 41.5914 -88.4767 97° East 283 326 25,100  Level Chicago Center
Fri 10:26:41 PM 41.5819 -88.3717 97° East 284 327 25,100  Level Chicago Center
Fri 10:27:42 PM 41.5714 -88.2644 97° East 285 328 25,100  Level Chicago Center
Fri 10:28:43 PM 41.5603 -88.1558 98° East 288 331 25,100  Level Chicago Center
Fri 10:29:45 PM 41.5508 -88.0472 97° East 289 333 25,100  Level Chicago Center
Fri 10:30:46 PM 41.5400 -87.9369 97° East 291 335 25,100  Level Chicago Center
Fri 10:31:47 PM 41.5283 -87.8289 98° East 292 336 25,100  Level Chicago Center
Fri 10:32:48 PM 41.5158 -87.6975 97° East 294 338 25,100 -49 Level Chicago Center
Fri 10:33:49 PM 41.5050 -87.5903 98° East 293 337 25,000  Descending Chicago Center
Fri 10:34:50 PM 41.4939 -87.4833 98° East 293 337 25,100 49 Climbing Chicago Center
Fri 10:35:51 PM 41.4833 -87.3767 97° East 292 336 25,100  Level Chicago Center
Fri 10:36:53 PM 41.4719 -87.2697 98° East 292 336 25,100  Level Chicago Center
Fri 10:37:54 PM 41.4606 -87.1633 98° East 291 335 25,100  Level Chicago Center
Fri 10:38:55 PM 41.4489 -87.0561 98° East 291 335 25,100  Level Chicago Center
Fri 10:39:56 PM 41.4383 -86.9517 98° East 288 331 25,100  Level Chicago Center
Fri 10:40:57 PM 41.4261 -86.8467 99° East 287 330 25,100  Level Chicago Center
Fri 10:41:58 PM 41.4156 -86.7425 98° East 285 328 25,100  Level Chicago Center
Fri 10:42:59 PM 41.4028 -86.6317 99° East 281 323 25,100  Level Chicago Center
Fri 10:44:00 PM 41.3911 -86.5281 99° East 282 325 25,100  Level Chicago Center
Fri 10:45:01 PM 41.3803 -86.4231 98° East 283 326 25,100  Level Chicago Center
Fri 10:46:03 PM 41.3686 -86.3192 98° East 284 327 25,100  Level Chicago Center
Fri 10:47:04 PM 41.3558 -86.2150 99° East 285 328 25,100  Level Chicago Center
Fri 10:48:05 PM 41.3447 -86.1108 98° East 284 327 25,100  Level Chicago Center
Fri 10:49:06 PM 41.3297 -85.9858 99° East 284 327 25,100  Level Chicago Center
Fri 10:50:07 PM 41.3175 -85.8817 99° East 284 327 25,100  Level Chicago Center
Fri 10:51:08 PM 41.3056 -85.7769 99° East 285 328 25,100  Level Chicago Center
Fri 10:52:09 PM 41.2922 -85.6725 100° East 286 329 25,100  Level Chicago Center
Fri 10:53:10 PM 41.2806 -85.5656 98° East 295 339 25,100  Level Chicago Center
Fri 10:54:11 PM 41.2675 -85.4606 99° East 293 337 25,100  Level Chicago Center
Fri 10:55:12 PM 41.2547 -85.3567 99° East 290 334 25,100  Level Chicago Center
Fri 10:56:13 PM 41.2422 -85.2522 99° East 290 334 25,100  Level Chicago Center
Fri 10:57:14 PM 41.2294 -85.1464 99° East 291 335 25,100  Level Chicago Center
Fri 10:58:15 PM 41.2136 -85.0203 99° East 290 334 25,100  Level Chicago Center
Fri 10:59:17 PM 41.2006 -84.9164 99° East 290 334 25,100  Level Chicago Center
Fri 11:00:18 PM 41.1869 -84.8100 100° East 290 334 25,100  Level Chicago Center
Fri 11:01:19 PM 41.1739 -84.7042 99° East 291 335 25,100  Level Chicago Center
Fri 11:02:14 PM 41.1597 -84.5994 100° East 291 335 25,100  Level Cleveland Center
Fri 11:03:15 PM 41.1469 -84.4944 99° East 291 335 25,100  Level Cleveland Center
Fri 11:04:16 PM 41.1322 -84.3889 100° East 291 335 25,100  Level Cleveland Center
Fri 11:05:17 PM 41.1183 -84.2831 100° East 292 336 25,100  Level Cleveland Center
Fri 11:06:17 PM 41.1044 -84.1772 100° East 292 336 25,100 -347 Level Cleveland Center
Fri 11:07:18 PM 41.0903 -84.0714 100° East 292 336 24,400 -984 Descending Cleveland Center
Fri 11:08:19 PM 41.0744 -83.9572 100° East 311 358 23,100 -1,230 Descending Cleveland Center
Fri 11:09:20 PM 41.0603 -83.8439 99° East 312 359 21,900 -1,230 Descending Cleveland Center
Fri 11:10:21 PM 41.0433 -83.7175 100° East 311 358 20,600 -1,230 Descending Cleveland Center
Fri 11:11:22 PM 41.0272 -83.6056 101° East 311 358 19,400 -1,180 Descending Cleveland Center
Fri 11:12:23 PM 41.0122 -83.4936 100° East 310 357 18,200 -1,180 Descending Cleveland Center
Fri 11:13:24 PM 40.9972 -83.3850 100° East 305 351 17,000 -1,180 Descending Cleveland Center
Fri 11:14:25 PM 40.9822 -83.2786 101° East 298 343 15,800 -1,131 Descending Cleveland Center
Fri 11:15:26 PM 40.9669 -83.1733 101° East 293 337 14,700 -1,180 Descending Cleveland Center
Fri 11:16:27 PM 40.9511 -83.0603 100° East 289 333 13,400 -1,230 Descending Cleveland Center
Fri 11:17:28 PM 40.9358 -82.9558 101° East 289 333 12,200 -1,180 Descending Cleveland Center
Fri 11:18:29 PM 40.9211 -82.8533 101° East 285 328 11,000 -1,131 Descending Cleveland Center
Fri 11:19:30 PM 40.9067 -82.7511 101° East 282 325 9,900 -1,041 Descending Cleveland Center
Fri 11:20:30 PM 40.8919 -82.6550 101° East 270 311 8,900 -1,041 Descending Cleveland Center
Fri 11:21:31 PM 40.8808 -82.5767 101° East 225 259 7,800 -1,131 Descending Cleveland Center
Fri 11:22:32 PM 40.8689 -82.4917 101° East 229 264 6,600 -1,131 Descending Cleveland Center
Fri 11:23:33 PM 40.8553 -82.4042 102° East 237 273 5,500 -1,180 Descending Cleveland Center
Fri 11:24:34 PM 40.8431 -82.3183 101° East 237 273 4,200 -793 Descending Cleveland Center
Fri 11:25:34 PM 40.8358 -82.2472 98° East 237 273 3,900 -300 Descending Cleveland Center
Fri 11:27:00 PM 40.8107 -82.1086 103° East  Level FlightAware Approximate
Fri 11:34:00 PM 40.7612 -81.7790 90° East  Level Estimated
Fri 11:35:00 PM 40.7612 -81.7790 90° East  Level Estimated
Fri 11:36:00 PM 40.7612 -81.7790 90° East  Level Estimated

Login

Don't have an account? Register now (free) for customized features, flight alerts, and more!